Spokane, WA

2:47 PM PST on February 22, 2018 (GMT -0800)
Spokane International

Weather History for KGEG - October, 2012

Change the Weather History Date:

Monday, October 1, 2012

  Actual Average Record
Temperature  
Mean Temperature 62 °F 54 °F  
Max Temperature 76 °F 66 °F 86 °F (1997)
Min Temperature 48 °F 42 °F 25 °F (1950)
Degree Days  
Heating Degree Days 3 11  
Month to date heating degree days 3 11  
Since 1 July heating degree days 105 259  
Cooling Degree Days 0 0  
Month to date cooling degree days 0 0  
Year to date cooling degree days 535 449  
Growing Degree Days 12 (Base 50)    
Moisture  
Dew Point 32 °F    
Average Humidity 38    
Maximum Humidity 54    
Minimum Humidity 21    
Precipitation  
Precipitation 0.00 in 0.02 in 0.88 in (1951)
Month to date precipitation 0.00 0.02  
Year to date precipitation 13.96 10.80  
Snow  
Snow 0.00 in 0.00 in 0.00 in (2002)
Month to date snowfall 0.0 0.0  
Since 1 July snowfall 0.0 0.0  
Since 1 September snowfall 0.0 0.0  
Snow Depth 0.00 in    
Sea Level Pressure  
Sea Level Pressure 30.13 in    
Wind  
Wind Speed 10 mph (South)    
Max Wind Speed 18 mph    
Max Gust Speed 22 mph    
Visibility 10 miles    
Events      
T = Trace of Precipitation, MM = Missing Value Source: NWS Daily Summary

Daily Weather History Graph

Daily Weather History Graph

Search for Another Location

Airport or City:

Trip Planner

Search our weather history database for the weather conditions in past years. The results will help you decide how hot, cold, wet, or windy it might be!

Date:

Astronomy

Oct. 01, 2012 Rise Set
Actual Time 6:49 AM PDT 6:28 PM PDT
Civil Twilight 6:19 AM PDT 6:58 PM PDT
Nautical Twilight 5:43 AM PDT 7:34 PM PDT
Astronomical Twilight 5:07 AM PDT 8:10 PM PDT
Moon 6:55 PM PDT (10/1) 8:34 AM PDT (10/1)
Length of Visible Light 12h 39m
Length of Day
11h 38m
Full, 97% of the Moon is Illuminated
Oct 1
Full
Oct 8
Last Quarter
Oct 15
New
Oct 21
First Quarter
Oct 29
Full

Hourly Weather History & Observations

Time (PDT) Temp. Dew Point Humidity Pressure Visibility Wind Dir Wind Speed Gust Speed Precip Events Conditions
12:53 AM 54.0 °F 26.1 °F 34% 30.28 in 10.0 mi South 6.9 mph - N/A   Clear
1:53 AM 51.1 °F 26.1 °F 38% 30.27 in 10.0 mi South 8.1 mph - N/A   Clear
2:53 AM 48.0 °F 26.1 °F 42% 30.27 in 10.0 mi SSE 3.5 mph - N/A   Clear
3:53 AM 51.1 °F 27.0 °F 39% 30.27 in 10.0 mi SSE 6.9 mph - N/A   Partly Cloudy
4:53 AM 50.0 °F 28.9 °F 44% 30.26 in 10.0 mi South 9.2 mph - N/A   Partly Cloudy
5:53 AM 50.0 °F 30.9 °F 48% 30.25 in 10.0 mi SSE 6.9 mph - N/A   Partly Cloudy
6:53 AM 48.0 °F 32.0 °F 54% 30.27 in 10.0 mi South 4.6 mph - N/A   Scattered Clouds
7:53 AM 51.1 °F 33.1 °F 50% 30.27 in 10.0 mi SSE 5.8 mph - N/A   Mostly Cloudy
8:53 AM 55.9 °F 33.1 °F 42% 30.26 in 10.0 mi SSE 4.6 mph - N/A   Scattered Clouds
9:53 AM 60.1 °F 33.1 °F 36% 30.25 in 10.0 mi SSE 8.1 mph - N/A   Scattered Clouds
10:53 AM 66.9 °F 34.0 °F 30% 30.22 in 10.0 mi Variable 5.8 mph - N/A   Mostly Cloudy
11:53 AM 70.0 °F 33.1 °F 26% 30.19 in 10.0 mi South 8.1 mph - N/A   Mostly Cloudy
12:53 PM 72.0 °F 32.0 °F 23% 30.17 in 10.0 mi SSW 12.7 mph - N/A   Mostly Cloudy
1:53 PM 73.9 °F 33.1 °F 22% 30.13 in 10.0 mi SW 10.4 mph - N/A   Mostly Cloudy
2:53 PM 75.0 °F 33.1 °F 22% 30.10 in 10.0 mi SW 10.4 mph 20.7 mph N/A   Mostly Cloudy
3:53 PM 75.0 °F 34.0 °F 22% 30.06 in 7.0 mi SW 15.0 mph - N/A   Mostly Cloudy
4:53 PM 75.0 °F 33.1 °F 22% 30.03 in 7.0 mi SSW 13.8 mph - N/A   Mostly Cloudy
5:53 PM 73.0 °F 36.0 °F 26% 30.00 in 7.0 mi SSW 9.2 mph - N/A   Mostly Cloudy
6:53 PM 69.1 °F 36.0 °F 30% 29.99 in 10.0 mi SW 10.4 mph - N/A   Scattered Clouds
7:53 PM 66.9 °F 35.1 °F 31% 29.97 in 10.0 mi SW 16.1 mph - N/A   Mostly Cloudy
8:53 PM 66.0 °F 36.0 °F 33% 29.95 in 10.0 mi SSW 12.7 mph - N/A   Overcast
9:53 PM 64.9 °F 37.0 °F 36% 29.93 in 10.0 mi SSW 13.8 mph - N/A   Overcast
10:53 PM 63.0 °F 36.0 °F 37% 29.91 in 10.0 mi SW 16.1 mph - N/A   Mostly Cloudy
11:53 PM 61.0 °F 36.0 °F 39% 29.89 in 10.0 mi SW 16.1 mph - N/A   Mostly Cloudy